• In Romania
  • List of Countries
  • For 7 days
  • Water Temperature
  • Satellite Maps
  • Weather Map
  • Weather Widgets
  • user-avatar
    Login

    Hourly Weather Brisbane

    Today, 20 August, Sunday

    Time Temperature Precipitation Wind Pressure Humidity
    00:00 +10°C° 0 mm 5 mps 762 mmHg 34%
    01:00 +9°C° 0 mm 5 mps 762 mmHg 36%
    02:00 +9°C° 0 mm 5 mps 762 mmHg 38%
    03:00 +8°C° 0 mm 5 mps 762 mmHg 40%
    04:00 +8°C° 0 mm 5 mps 762 mmHg 41%
    05:00 +8°C° 0 mm 4 mps 762 mmHg 42%
    06:00 +8°C° 0 mm 4 mps 763 mmHg 44%
    07:00 +8°C° 0 mm 4 mps 763 mmHg 45%
    08:00 +12°C° 0 mm 4 mps 763 mmHg 40%
    09:00 +15°C° 0 mm 5 mps 763 mmHg 36%
    10:00 +17°C° 0 mm 5 mps 763 mmHg 31%
    11:00 +20°C° 0 mm 5 mps 762 mmHg 29%
    12:00 +21°C° 0 mm 4 mps 762 mmHg 27%
    13:00 +22°C° 0 mm 4 mps 762 mmHg 24%
    14:00 +22°C° 0 mm 4 mps 761 mmHg 26%
    15:00 +22°C° 0 mm 4 mps 761 mmHg 27%
    16:00 +22°C° 0 mm 4 mps 761 mmHg 29%
    17:00 +20°C° 0 mm 4 mps 762 mmHg 35%
    18:00 +18°C° 0 mm 4 mps 762 mmHg 42%
    19:00 +15°C° 0 mm 4 mps 763 mmHg 48%
    20:00 +14°C° 0 mm 4 mps 763 mmHg 53%
    21:00 +13°C° 0 mm 4 mps 764 mmHg 58%
    22:00 +13°C° 0 mm 3 mps 764 mmHg 62%
    23:00 +12°C° 0 mm 3 mps 764 mmHg 66%

    Tomorrow, 21 August, Monday

    Time Temperature Precipitation Wind Pressure Humidity
    00:00 +11°C° 0 mm 3 mps 764 mmHg 69%
    01:00 +11°C° 0 mm 3 mps 764 mmHg 73%
    02:00 +10°C° 0 mm 3 mps 764 mmHg 75%
    03:00 +10°C° 0 mm 3 mps 763 mmHg 77%
    04:00 +10°C° 0 mm 3 mps 763 mmHg 79%
    05:00 +10°C° 0 mm 2 mps 764 mmHg 78%
    06:00 +10°C° 0 mm 2 mps 764 mmHg 77%
    07:00 +10°C° 0 mm 2 mps 764 mmHg 76%
    08:00 +14°C° 0 mm 2 mps 764 mmHg 68%
    09:00 +18°C° 0 mm 2 mps 764 mmHg 59%
    10:00 +22°C° 0 mm 1 mps 764 mmHg 51%
    11:00 +23°C° 0 mm 1 mps 764 mmHg 48%
    12:00 +24°C° 0 mm 2 mps 763 mmHg 44%
    13:00 +24°C° 0 mm 2 mps 763 mmHg 41%
    14:00 +24°C° 0 mm 2 mps 762 mmHg 45%
    15:00 +22°C° 0 mm 3 mps 762 mmHg 48%
    16:00 +21°C° 0 mm 3 mps 762 mmHg 52%
    17:00 +20°C° 0 mm 3 mps 762 mmHg 59%
    18:00 +19°C° 0 mm 3 mps 763 mmHg 66%
    19:00 +17°C° 0 mm 3 mps 763 mmHg 72%
    20:00 +17°C° 0 mm 3 mps 763 mmHg 73%
    21:00 +17°C° 0 mm 3 mps 763 mmHg 74%
    22:00 +16°C° 0 mm 3 mps 764 mmHg 75%
    23:00 +16°C° 0 mm 3 mps 763 mmHg 77%

    Day after tomorrow, 22 August, Tuesday

    Time Temperature Precipitation Wind Pressure Humidity
    00:00 +16°C° 0 mm 3 mps 763 mmHg 80%
    01:00 +14°C° 0 mm 3 mps 763 mmHg 82%
    02:00 +14°C° 0 mm 3 mps 763 mmHg 83%
    03:00 +13°C° 0 mm 3 mps 762 mmHg 85%
    04:00 +13°C° 0 mm 3 mps 762 mmHg 86%
    05:00 +13°C° 0 mm 3 mps 763 mmHg 86%
    06:00 +13°C° 0 mm 3 mps 763 mmHg 85%
    07:00 +13°C° 0 mm 3 mps 763 mmHg 84%
    08:00 +17°C° 0 mm 3 mps 763 mmHg 73%
    09:00 +20°C° 0 mm 4 mps 763 mmHg 62%
    10:00 +23°C° 0 mm 4 mps 763 mmHg 52%
    11:00 +26°C° 0 mm 4 mps 762 mmHg 44%
    12:00 +27°C° 0 mm 4 mps 762 mmHg 36%
    13:00 +29°C° 0 mm 4 mps 761 mmHg 29%
    14:00 +29°C° 0 mm 4 mps 760 mmHg 29%
    15:00 +28°C° 0 mm 4 mps 760 mmHg 29%
    16:00 +28°C° 0 mm 4 mps 760 mmHg 29%
    17:00 +26°C° 0 mm 4 mps 761 mmHg 36%
    18:00 +23°C° 0 mm 4 mps 761 mmHg 43%
    19:00 +20°C° 0 mm 4 mps 762 mmHg 50%
    20:00 +19°C° 0 mm 4 mps 762 mmHg 50%
    21:00 +18°C° 0 mm 4 mps 763 mmHg 51%
    22:00 +17°C° 0 mm 3 mps 763 mmHg 51%
    23:00 +16°C° 0 mm 3 mps 763 mmHg 53%

    23 August, Wednesday

    Time Temperature Precipitation Wind Pressure Humidity
    00:00 +14°C° 0 mm 3 mps 763 mmHg 54%
    01:00 +14°C° 0 mm 3 mps 763 mmHg 56%
    02:00 +13°C° 0 mm 3 mps 763 mmHg 59%
    03:00 +14°C° 0 mm 2 mps 763 mmHg 63%
    04:00 +13°C° 0 mm 2 mps 763 mmHg 66%
    05:00 +14°C° 0 mm 2 mps 763 mmHg 68%
    06:00 +14°C° 0 mm 2 mps 764 mmHg 69%
    07:00 +14°C° 0 mm 2 mps 764 mmHg 71%
    08:00 +17°C° 0 mm 2 mps 764 mmHg 64%
    09:00 +21°C° 0 mm 2 mps 764 mmHg 57%
    10:00 +25°C° 0 mm 2 mps 764 mmHg 50%
    11:00 +27°C° 0 mm 1 mps 763 mmHg 43%
    12:00 +28°C° 0 mm 1 mps 762 mmHg 35%
    13:00 +30°C° 0 mm 1 mps 762 mmHg 28%
    14:00 +29°C° 0 mm 1 mps 762 mmHg 30%
    15:00 +28°C° 0 mm 2 mps 761 mmHg 32%
    16:00 +28°C° 0 mm 3 mps 761 mmHg 34%
    17:00 +25°C° 0 mm 3 mps 762 mmHg 48%
    18:00 +23°C° 0 mm 2 mps 762 mmHg 62%
    19:00 +19°C° 0 mm 2 mps 763 mmHg 76%
    20:00 +19°C° 0 mm 2 mps 763 mmHg 81%
    21:00 +19°C° 0 mm 1 mps 763 mmHg 85%
    22:00 +18°C° 0 mm 1 mps 763 mmHg 89%
    23:00 +18°C° 0 mm 1 mps 763 mmHg 91%

    24 August, Thursday

    Time Temperature Precipitation Wind Pressure Humidity
    00:00 +18°C° 0 mm 1 mps 763 mmHg 92%
    01:00 +16°C° 0 mm 1 mps 762 mmHg 93%
    02:00 +16°C° 0 mm 1 mps 762 mmHg 93%
    03:00 +16°C° 0 mm 1 mps 762 mmHg 93%
    04:00 +16°C° 0 mm 1 mps 762 mmHg 93%
    05:00 +16°C° 0 mm 1 mps 762 mmHg 92%
    06:00 +16°C° 0 mm 2 mps 762 mmHg 91%
    07:00 +16°C° 0 mm 2 mps 763 mmHg 89%
    08:00 +19°C° 0 mm 2 mps 763 mmHg 74%
    09:00 +23°C° 0 mm 2 mps 762 mmHg 59%
    10:00 +26°C° 0 mm 2 mps 762 mmHg 44%
    11:00 +27°C° 0 mm 2 mps 761 mmHg 37%
    12:00 +29°C° 0 mm 2 mps 761 mmHg 30%
    13:00 +30°C° 0 mm 2 mps 760 mmHg 24%
    14:00 +29°C° 0 mm 3 mps 759 mmHg 27%
    15:00 +29°C° 0 mm 3 mps 759 mmHg 31%
    16:00 +28°C° 0 mm 4 mps 759 mmHg 34%
    17:00 +26°C° 0.2 mm 4 mps 760 mmHg 40%
    18:00 +24°C° 0.2 mm 3 mps 760 mmHg 45%
    19:00 +21°C° 0.2 mm 3 mps 761 mmHg 51%
    20:00 +20°C° 0.1 mm 3 mps 761 mmHg 53%
    21:00 +19°C° 0.1 mm 3 mps 761 mmHg 55%
    22:00 +18°C° 0.1 mm 3 mps 761 mmHg 57%
    23:00 +17°C° 0 mm 4 mps 761 mmHg 62%

    25 August, Friday

    Time Temperature Precipitation Wind Pressure Humidity
    00:00 +15°C° 0 mm 4 mps 761 mmHg 67%
    01:00 +15°C° 0 mm 4 mps 761 mmHg 71%
    02:00 +14°C° 0 mm 4 mps 761 mmHg 75%
    03:00 +14°C° 0 mm 4 mps 761 mmHg 80%
    04:00 +13°C° 0 mm 4 mps 761 mmHg 84%
    05:00 +14°C° 0 mm 4 mps 762 mmHg 81%
    06:00 +14°C° 0 mm 4 mps 762 mmHg 79%
    07:00 +14°C° 0 mm 4 mps 763 mmHg 76%
    08:00 +17°C° 0 mm 4 mps 763 mmHg 66%
    09:00 +19°C° 0 mm 3 mps 763 mmHg 56%
    10:00 +22°C° 0 mm 3 mps 763 mmHg 45%
    11:00 +24°C° 0 mm 3 mps 762 mmHg 40%
    12:00 +26°C° 0 mm 3 mps 761 mmHg 35%
    13:00 +28°C° 0 mm 2 mps 761 mmHg 30%
    14:00 +26°C° 0 mm 3 mps 761 mmHg 34%
    15:00 +25°C° 0 mm 4 mps 760 mmHg 38%
    16:00 +23°C° 0 mm 4 mps 760 mmHg 42%
    17:00 +21°C° 0.1 mm 4 mps 761 mmHg 53%
    18:00 +19°C° 0.1 mm 4 mps 761 mmHg 64%
    19:00 +18°C° 0.1 mm 4 mps 762 mmHg 75%
    20:00 +17°C° 0.1 mm 4 mps 762 mmHg 78%
    21:00 +16°C° 0.1 mm 3 mps 763 mmHg 80%
    22:00 +16°C° 0.1 mm 3 mps 763 mmHg 82%
    23:00 +14°C° 0.2 mm 3 mps 763 mmHg 84%
    Show more